Vertical_Velocity
1 1 3 4 4 3 -0 -0 -0 -1 -1 -1 -1 -0 0 1 1 1 0 -0 -0 0 1 -0 1 2 2 1 1 1 0 1 1 1 1 1 0 -0 -1 -1 -1 -1 -0 -0 -0 -0 0 -1 -0 0 -0 -0 1 3 4 -1 -3 -2 -0 -1 0 2 1 -0 -1 -1 2 -2 -3 -2 -0 0 1 1 1 1 1 1 1 1 1 1 1 0 0 1 0 0 0 0 -0 -0 -0 -0 -0 -1 -1 -1 0 -0 -0 -0 -1
1 2 4 6 7 5 1 1 0 -1 -1 -1 -0 -0 0 1 1 1 0 0 -0 -0 1 -0 1 1 1 1 0 0 0 1 1 1 1 1 0 -1 -1 -1 -0 -0 -0 0 0 -0 -0 -0 0 1 -0 -0 1 3 3 -1 -2 -2 -4 -4 -2 -0 -0 -2 1 6 7 1 -2 -1 1 1 1 1 1 0 0 1 1 1 1 1 0 0 0 0 0 0 0 -0 -1 -0 -0 -0 -0 -0 -0 0 0 0 -0 -0 -0
2 4 6 7 8 6 3 2 1 -0 -1 -0 -0 -0 1 1 1 0 1 1 0 -0 0 -0 -0 0 1 -0 -0 -0 0 0 1 1 1 0 -0 -1 -1 -1 -0 0 0 0 0 0 -0 0 1 1 0 0 1 2 1 -2 0 2 2 1 -0 -2 -3 -2 5 11 8 1 -1 0 1 1 1 1 -0 -0 0 1 0 1 1 1 0 0 0 0 -1 -0 -0 -0 -0 -0 -0 -0 -0 0 0 0 0 -0 -0 -1 -1
3 4 5 6 6 5 3 2 1 0 0 -0 -0 0 1 1 1 0 0 0 0 0 1 -0 -1 -0 1 -0 -1 -0 0 0 1 1 0 -0 -0 -0 -1 -0 0 0 0 1 1 1 0 -0 1 1 1 1 1 1 -1 -2 1 4 5 7 3 -2 -4 -2 6 12 6 1 0 1 1 1 0 -0 -1 -0 0 0 1 1 1 1 1 0 0 0 -1 -1 -1 -0 -0 0 0 0 0 0 -0 -0 -0 -1 -1 -1 -1
6 4 3 4 3 2 2 1 1 1 1 -0 -0 0 1 1 1 1 0 0 -0 0 2 1 -0 -0 1 0 -0 -0 0 0 1 1 0 -0 -0 -0 -1 -0 0 0 0 1 1 1 0 -1 1 2 1 1 1 1 -2 -1 1 3 3 7 5 1 -3 -2 4 9 6 2 0 1 1 1 -0 -1 -1 -0 0 0 1 1 1 1 1 1 1 0 0 0 0 0 -0 -0 0 0 -0 -0 -0 -0 -1 -1 -1 -1 -2
7 2 1 1 1 1 1 1 1 1 1 -0 0 1 1 1 1 1 0 -0 -0 1 3 1 -0 -0 1 -0 -0 -0 0 1 1 0 -0 -0 -0 -0 -1 0 0 0 0 1 1 1 1 1 2 3 1 1 1 1 -1 -0 1 3 2 3 6 7 2 1 2 4 4 3 1 0 -0 -1 -1 -1 -1 -0 -0 0 1 1 1 1 1 1 1 1 0 0 0 0 0 0 0 -0 -0 -0 -1 -1 -1 -1 -1 -1 -2
7 2 -0 0 -0 -0 -0 1 1 1 1 -0 1 2 2 1 1 1 1 1 0 1 3 1 -0 -0 1 -0 -0 0 1 1 1 0 -1 -0 -0 -0 -1 0 0 0 0 1 1 1 1 2 3 3 2 1 1 1 -0 0 1 3 4 2 4 7 7 6 4 2 2 2 2 2 1 -2 -2 -2 -1 -1 -1 0 1 1 1 1 1 1 0 0 0 0 0 0 0 -0 -0 -0 -0 -1 -1 -1 -1 -1 -1 -1 -1
8 4 1 0 -1 -1 -0 1 1 1 -0 -0 0 1 1 1 1 1 1 1 1 1 3 1 -0 -1 0 -0 0 1 1 1 1 0 -1 -0 -0 -1 -1 0 -0 -0 1 1 1 1 1 2 3 3 2 2 1 1 -1 0 1 2 4 -1 -1 2 3 4 3 3 2 2 3 3 2 -1 -2 -2 -1 -1 -1 -0 -0 1 1 1 1 1 1 0 0 0 0 0 -0 -0 -0 -1 -1 -1 -1 -0 -0 -0 -0 -0 -0
9 7 3 0 -1 -2 -1 1 1 1 -1 -1 -1 0 0 1 1 1 2 1 1 1 1 1 0 0 0 0 1 1 1 1 0 -0 -0 -0 -0 -0 -0 -0 -1 -0 1 1 2 1 -0 2 2 2 2 2 3 2 -0 1 2 3 3 -1 -1 -0 0 1 3 4 3 3 4 3 2 0 -1 -1 -0 -1 -1 0 -0 1 1 1 1 1 1 0 0 0 0 -0 -1 -0 -0 -1 -1 -1 -1 -0 -0 -0 -0 -0 -0
8 6 2 -1 -2 -2 -1 1 1 1 -2 -1 -1 -0 0 0 1 2 2 1 1 1 0 1 1 1 1 1 1 1 1 1 0 -0 -0 -0 -0 -0 -0 -1 -1 -0 1 2 2 2 -0 1 1 2 2 2 3 3 1 2 3 2 2 1 -0 -1 -0 1 3 5 5 4 2 2 2 1 -0 -0 -0 -1 -0 1 0 1 0 0 0 0 0 0 0 0 -0 -0 -0 -0 -0 -1 -1 -0 -1 -1 -1 -1 -1 -1 -1
7 3 0 -1 -2 -2 -0 0 0 -0 -1 -1 -0 -1 -0 0 1 2 2 2 2 1 0 -0 0 1 1 2 2 2 1 1 1 0 0 0 0 -0 -1 -1 -1 -1 1 2 2 2 1 -0 0 1 1 2 2 2 2 3 2 2 1 0 -0 -1 -0 1 4 6 6 4 2 1 1 1 1 1 -0 -1 -1 -1 0 0 0 -0 -0 0 0 0 0 0 -0 -0 -0 -0 -0 -1 -1 -1 -1 -1 -1 -1 -1 -1 -1
5 1 -0 -1 -1 -1 -0 0 -0 -1 -0 -0 -0 -0 -0 0 1 2 3 3 3 2 1 -0 0 1 2 2 2 2 1 1 1 1 0 1 0 -0 -1 -1 -1 -1 1 1 2 2 2 1 0 1 -0 2 2 2 2 2 1 1 1 -0 -1 -1 -0 -1 2 6 6 3 1 -0 0 -0 1 1 -0 -1 -1 -1 -2 -0 -0 -0 -0 -0 -0 -0 0 0 0 -0 -0 -1 -1 -1 -1 -1 -1 -1 -1 -1 -1 -1 -1
3 0 0 -1 -1 -1 -1 -0 -1 -1 1 1 0 0 1 -0 1 2 3 4 3 3 1 0 1 2 2 3 3 2 0 1 0 0 1 1 0 -0 -1 -1 -1 -0 1 1 2 2 2 1 1 1 1 2 3 2 1 1 1 1 1 0 -0 -0 -0 -2 1 4 5 3 1 -1 -1 1 2 1 -1 -1 -1 -1 -1 -1 -0 -0 -0 -0 -0 -0 0 0 -0 -0 -1 -1 -1 -1 -1 -1 -1 -1 -1 -1 -1 -1 -1
3 0 1 -1 -2 -2 -1 -0 -1 -1 1 2 1 0 2 -0 0 2 2 4 4 3 2 2 2 3 3 4 3 2 0 1 0 0 1 1 0 -0 -1 -1 -1 0 1 1 2 2 2 1 1 2 3 3 3 2 1 1 1 1 1 1 0 -0 -0 -2 -0 2 2 2 -0 -1 -1 2 2 1 -1 -1 -1 -2 -1 -1 -1 -0 -0 -0 -0 -0 -0 -0 -1 -1 -1 -1 -1 -1 -1 -1 -1 -1 -1 -1 -1 -1 -1
4 1 1 -1 -3 -2 -0 -1 -2 -1 1 2 2 1 1 -0 0 2 2 3 4 4 3 2 3 3 4 4 3 2 1 0 0 0 1 0 0 -0 -1 -1 -0 1 2 2 2 2 1 1 1 2 4 2 1 1 1 1 1 1 0 0 -1 -1 -1 -1 0 1 1 1 -0 -1 1 3 2 1 -1 -1 -2 -1 -1 -1 -1 -0 -0 -0 -0 -0 -0 -1 -1 -1 -1 -1 -1 -1 -1 -1 -1 -1 -1 -1 -1 -1 -1
5 1 2 -1 -3 -2 0 -1 -2 -1 0 3 3 2 1 -1 0 2 2 3 4 4 3 3 3 4 4 4 3 3 3 1 0 1 1 0 0 -0 -1 -1 0 1 2 2 2 2 2 1 1 1 2 0 -0 0 1 0 1 1 -0 -1 -2 -2 -1 -0 0 0 0 0 -1 -1 2 3 2 1 -1 -2 -1 -1 -0 -1 -1 -1 -1 -1 -0 -0 -0 -1 -1 -1 -1 -1 -1 -0 -0 -0 -0 -0 -1 -0 -0 -0 -1
4 2 2 -1 -2 -1 0 -2 -2 -1 -0 3 3 3 1 0 1 2 2 3 3 4 3 3 3 4 5 4 4 3 3 1 1 1 1 1 1 -0 -1 -1 0 1 2 2 2 3 2 1 1 0 1 0 0 0 0 -1 -1 -1 -1 -2 -2 -0 1 1 0 -1 -1 -0 -1 -1 3 3 2 0 -2 -1 -1 -1 -0 -0 -0 -1 -1 -0 -0 -0 -0 -0 -0 -0 -0 -0 0 0 0 0 -0 -0 -0 -0 0 0 -0
4 2 2 -0 -1 -1 -1 -2 -2 -1 -0 3 4 3 2 1 1 1 2 2 3 4 3 3 3 4 5 5 4 3 2 1 1 1 1 2 1 0 -1 -0 0 1 2 2 2 2 2 2 0 -0 1 1 1 -0 -1 -2 -2 -3 -3 -4 -1 2 2 2 1 -1 -2 -1 -2 -2 3 4 2 -0 -1 -1 -1 -0 -0 -0 -0 -0 -0 -0 -0 0 0 0 0 0 0 1 1 1 1 0 0 0 0 0 0 0 0
5 4 2 1 0 0 -0 -2 -1 -0 0 3 4 4 2 2 1 1 1 2 4 4 3 3 4 4 4 5 4 3 2 1 0 -0 -0 1 1 1 -0 0 1 1 2 2 2 2 2 2 1 -0 0 1 1 -1 -3 -3 -3 -2 -1 -3 -1 2 2 2 1 -0 -1 -2 -3 -2 3 4 3 1 -0 -1 -0 0 0 0 -0 -0 0 0 0 1 1 1 1 1 1 1 1 1 1 1 1 1 1 1 1 0 0
8 7 6 3 2 1 1 0 0 1 1 4 5 5 3 3 2 1 1 3 4 4 3 3 3 4 3 4 4 3 2 1 1 0 0 0 0 0 0 0 1 1 2 2 2 2 2 2 1 -0 0 1 1 -1 -3 -3 1 4 3 1 2 3 2 2 1 1 -1 -2 -3 -2 1 2 1 0 0 0 0 0 0 0 0 0 1 1 1 1 1 1 1 1 1 1 1 1 1 1 1 1 1 0 0 -0 -1
9 10 10 7 6 5 4 4 3 3 3 4 4 4 3 3 3 2 1 4 5 4 3 2 2 2 3 3 3 3 2 2 2 1 -0 -0 -0 0 0 0 1 1 2 2 2 2 1 1 1 -0 -0 1 1 -0 -2 -1 4 6 -0 0 3 6 2 1 1 1 -1 -2 -3 -2 -1 -0 -0 -0 1 1 1 0 0 1 1 1 1 1 1 1 1 1 1 1 1 1 1 1 1 1 1 1 1 -0 -1 -1 -2
7 8 10 8 7 6 5 4 4 3 2 2 2 1 1 1 1 1 1 4 4 4 2 1 1 1 3 2 2 2 3 3 2 1 -1 -1 -0 0 0 1 1 1 2 2 1 1 1 1 0 0 0 1 1 1 0 0 4 5 -3 -1 3 6 1 -0 0 1 -2 -2 -2 -2 -2 -1 -1 -0 0 1 1 1 1 1 1 2 2 2 2 2 2 2 2 1 1 1 1 1 1 1 1 0 0 -1 -1 -2 -2
4 5 6 5 5 4 3 2 0 -1 -1 -1 -1 -1 -0 -1 -1 0 2 3 2 2 2 1 1 1 2 1 1 2 4 3 3 1 -1 -1 -1 -0 1 1 1 1 1 1 0 -0 -0 -0 -0 0 0 1 1 2 3 1 3 4 1 3 5 5 0 -2 -1 -0 -2 -3 -2 -0 -1 -1 -1 -1 -0 0 1 1 1 2 2 2 2 2 2 2 2 2 2 1 1 1 1 1 1 1 0 0 -0 -1 -2 -2 -2
4 3 1 1 2 2 1 1 -1 -3 -1 0 -1 -1 -1 -1 -1 -1 1 2 1 1 2 1 1 0 0 0 0 1 4 3 3 2 -1 -2 -1 -0 1 1 1 0 0 0 -0 -1 -1 -1 -1 -0 0 0 1 1 3 -1 -0 2 5 6 6 4 -1 -2 -2 -1 -2 -2 0 1 -0 -1 -1 -1 0 0 0 1 1 2 2 2 2 2 2 2 2 1 1 1 1 1 1 1 1 0 -0 -0 -1 -1 -2 -2 -1
3 1 -1 -1 -0 1 1 1 0 0 2 4 3 1 -1 0 0 0 1 2 2 1 2 2 1 0 -1 -0 -0 1 5 4 3 3 0 -2 -2 -0 1 1 1 0 0 0 -0 -1 -1 -1 -1 -0 1 0 0 1 3 -2 -3 -0 4 7 7 4 -3 -2 -1 -1 -2 -1 1 2 -1 -1 -0 1 2 0 0 1 1 2 2 2 1 1 1 1 1 1 1 1 1 1 0 0 -0 -0 -0 -0 -0 -1 -1 -1 -1
2 0 -1 -2 -2 -2 -0 1 1 1 4 7 6 3 1 2 1 1 1 2 2 2 2 2 1 0 -1 -1 -1 0 3 3 2 1 1 -1 -1 0 1 1 1 0 0 -0 -1 -1 -1 -1 -1 -1 1 0 0 1 2 -1 -3 -3 0 5 6 2 -4 -0 -0 -1 -2 -2 -1 1 1 0 1 2 2 1 1 1 1 2 1 1 1 1 1 1 1 1 1 1 1 0 0 -0 -0 -0 -1 -1 -1 -1 -0 -0 -0
2 1 -1 -1 -1 -2 -2 0 0 1 4 7 6 4 2 2 2 1 1 2 2 2 2 2 1 0 -0 0 -0 -0 0 2 1 0 1 1 1 1 1 0 0 0 -0 -1 -1 -1 -1 -1 -1 -1 1 -0 -0 1 1 -1 -3 -4 -3 -2 1 2 0 1 1 0 -2 -3 -3 -2 -0 1 1 2 1 1 1 1 1 1 1 1 1 1 1 1 1 1 1 1 0 -0 -1 -1 -0 -0 -1 -1 -1 -1 -0 -0 0
1 1 -0 0 1 0 -2 -0 -1 -1 4 6 6 4 2 1 0 0 0 1 2 2 1 0 -1 -1 -0 0 1 1 0 1 1 1 2 2 2 2 1 0 -0 -0 -0 -1 -1 -1 -1 -1 -0 0 1 -1 -0 1 1 -2 -3 -3 -1 -3 1 6 5 3 2 2 1 -0 -2 -3 -3 -2 -1 1 2 1 1 1 1 1 1 1 1 1 1 1 1 1 0 -0 -0 -1 -1 -1 -1 -1 -1 -1 -0 -0 -0 0 0
-0 1 1 1 1 1 -0 -2 -4 -3 2 3 3 4 3 -1 -2 -2 -1 0 1 0 -1 -2 -2 -2 -1 -1 0 1 1 2 3 3 3 2 2 3 2 0 -0 -0 0 0 -0 -1 -1 -0 0 1 0 -1 -0 1 1 -2 -4 -2 3 0 2 4 4 3 1 -0 2 3 1 -1 -1 -2 -1 0 2 1 1 0 0 0 1 1 1 1 1 1 0 0 0 -0 -0 -0 -1 -1 -1 -1 -1 -0 0 -0 0 0 0
-0 1 2 1 0 1 -0 -5 -6 -5 -1 2 2 1 1 -2 -3 -3 -2 -0 -0 -1 -2 -2 -1 0 0 -1 -1 0 2 2 3 3 2 2 2 2 2 1 0 -0 0 1 1 0 -0 -0 0 1 0 -1 -1 -1 -1 -2 -3 -2 5 4 3 2 2 2 -1 -1 4 6 4 1 1 1 1 1 1 1 1 1 0 0 1 1 1 0 0 0 -0 -0 -0 0 0 -0 -1 -2 -2 -1 -0 -0 -0 0 0 0 -0
-2 -2 -0 2 3 3 -1 -7 -7 -5 -5 2 2 0 -4 -3 -2 -2 -2 -1 -1 -1 -1 0 1 1 1 1 1 0 2 1 1 1 2 2 2 1 1 1 0 0 1 1 1 1 0 0 0 0 0 0 -0 -1 -1 -1 -2 -1 3 2 2 1 0 0 -0 1 6 6 6 4 1 1 2 2 0 -1 -0 1 0 0 -0 -0 0 -0 -0 -0 -1 -0 -0 -0 -0 -1 -2 -2 -1 -0 -0 -0 -0 0 0 0 -0
-3 -4 -2 2 4 3 -1 -4 -5 -4 -5 -1 0 -1 -4 -4 -3 -1 0 -1 -2 -3 -2 -1 0 0 1 2 1 1 -0 -0 0 1 1 2 1 1 1 0 0 1 1 1 1 0 -0 0 0 0 -0 0 0 0 -0 -1 -1 -1 -0 -0 -0 -1 -2 -3 -3 0 6 3 7 9 3 1 0 0 -1 -1 -0 0 0 -0 -0 -1 -1 -0 -0 -1 -1 -0 -0 -1 -1 -2 -2 -2 -1 -0 -0 -0 0 0 -0 -0 -0
-0 -3 -2 1 2 0 -3 -4 -3 -2 -2 -0 0 -1 -3 -3 -2 -1 1 -0 -1 -2 -1 -1 -0 0 1 1 0 -0 -1 0 0 0 1 1 1 1 1 1 1 1 1 1 0 0 -1 -0 0 0 0 1 1 1 -0 -0 0 0 -1 -2 -2 -3 -5 -6 -6 -3 3 -2 2 7 3 0 -1 -2 -2 -1 -1 -1 -0 -0 -1 -0 -0 -0 -0 -0 -0 -0 -1 -1 -2 -1 -1 -1 -1 -0 -0 0 0 -0 -0 -1 -0
-0 -3 -3 0 1 -0 -4 -5 -3 -0 2 3 2 -2 -6 -4 -2 1 1 0 -0 1 2 2 2 2 2 0 -1 -1 -1 1 1 0 0 1 1 1 1 1 1 1 1 1 0 -0 -0 0 0 1 0 1 1 1 0 0 0 0 -2 -3 -3 -3 -4 -4 -3 -1 0 -3 -2 1 2 1 0 0 -0 -1 -1 -1 -1 -1 -0 -0 -0 -0 -0 -0 -0 -0 -1 -1 -1 -0 -0 -0 -0 -0 0 0 0 -0 -0 -1 -1
-3 -5 -4 1 3 2 -3 -4 -2 1 4 4 1 -4 -6 -3 -0 1 2 1 1 2 3 2 2 2 1 -0 -1 -1 0 2 2 1 0 0 1 1 1 2 2 1 1 1 1 0 0 0 0 0 1 1 1 1 0 -1 -2 -2 -1 -3 -2 0 -0 4 7 7 -0 -2 -2 -2 2 2 2 1 0 -1 -1 -1 -0 -0 -0 -0 -0 -0 -0 0 0 -0 -0 -1 -0 0 1 0 -0 -0 0 0 0 -0 -1 -1 -2
-3 -5 -4 2 3 2 -1 -2 -1 1 3 2 -2 -6 -3 -1 0 0 1 0 1 1 2 2 2 1 0 0 0 1 1 2 2 2 2 1 1 0 1 1 1 0 1 1 1 0 0 0 0 0 0 0 0 0 -1 -2 -3 -2 -1 -2 -0 3 4 9 13 12 3 -0 -1 -1 2 1 -0 -1 -1 -1 -1 -0 -0 -0 -0 -0 0 0 0 0 0 0 0 0 0 1 1 1 0 -0 0 0 0 -1 -1 -1 -2
-1 -3 -3 2 2 -0 -1 -1 -1 0 1 -0 -4 -7 -4 -2 -0 0 1 0 -1 -1 0 1 0 -0 -1 -0 1 1 0 1 1 2 2 1 1 1 2 1 0 -0 1 -0 -1 -1 0 -0 -0 -0 -1 -0 0 0 -1 -2 -3 -3 -2 -3 -3 -1 2 7 10 10 5 3 2 2 2 0 -1 -1 0 1 0 -0 -1 -1 -0 -0 0 0 0 1 1 1 0 0 0 1 1 1 -0 -0 -0 -0 -0 -1 -1 -1 -1
-1 -2 0 2 2 1 -2 -3 -2 0 0 -1 -5 -8 -7 -3 1 3 2 0 -1 -2 -1 -0 -0 -0 0 0 0 0 -0 0 1 1 0 0 1 1 2 0 0 1 1 -1 -2 -1 0 -0 -0 -0 -1 -1 -0 -0 -1 -1 -1 -2 -2 -3 -4 -3 -0 3 4 5 4 4 3 2 1 -0 -1 -0 1 1 0 -0 -1 -1 -0 0 0 0 0 0 0 1 0 0 0 1 1 0 -0 -1 -1 -1 -1 -1 -1 -1 -2
1 -0 1 3 3 2 -3 -3 -2 -0 1 -0 -3 -5 -5 -0 3 4 3 1 -1 -2 -0 -0 0 1 2 2 1 1 1 1 1 1 -1 -1 -0 0 0 -1 0 1 0 -1 -1 -0 -0 -1 -1 -1 -1 -1 -1 -1 -0 1 2 2 1 -0 -2 -2 -0 2 2 1 2 2 2 1 0 -0 -0 -0 0 0 -0 -1 -1 -0 -0 0 0 0 0 0 0 0 0 0 0 1 1 0 -0 -1 -1 -1 -1 -1 -1 -1 -2
3 1 0 2 2 1 -1 -2 -3 -2 2 1 -0 -1 0 3 4 3 2 0 -1 -2 -0 -0 -0 -0 1 1 2 2 3 3 3 1 -0 -0 -0 -0 -1 -1 -1 -0 -1 -0 -0 -0 -1 -1 -1 -1 -1 -1 -1 -1 -0 1 2 3 4 1 -0 -1 -1 -0 -1 -1 0 1 1 0 -0 -1 -1 -1 -1 -1 -1 -1 -0 -0 -0 0 0 0 0 0 0 0 0 1 1 1 1 0 -0 -1 -1 -1 -1 -1 -1 -1 -2
3 1 -1 -0 0 1 0 -3 -4 -2 1 2 1 1 1 2 2 1 -0 0 1 1 2 1 -1 -2 -2 -1 0 1 3 3 3 2 1 1 1 -1 -1 -1 -1 -1 -1 0 0 -0 -1 -1 -0 -1 -1 -2 -2 -1 -1 -1 -0 1 3 2 1 0 0 -2 -2 -1 -0 -1 -1 -1 -2 -1 -1 -1 -1 -1 -1 -1 -0 -0 -0 0 0 0 0 0 0 0 0 1 1 1 1 1 -0 -1 -1 -2 -1 -1 -1 -2 -2
1 -1 -1 -1 1 1 -2 -4 -2 -0 -0 0 -1 -2 -2 -1 -0 -0 0 2 2 2 3 3 1 -1 -3 -2 -1 -0 0 2 2 2 2 2 1 -1 -1 -0 -0 -0 1 1 1 0 -0 -0 -0 -1 -2 -2 -1 -1 -1 -1 -1 -1 1 1 0 -0 0 -1 -1 -1 -1 -1 -1 -2 -2 -2 -2 -2 -1 -1 -1 -0 -0 -0 -0 -0 0 0 0 0 0 0 0 1 1 1 1 1 0 -1 -1 -1 -0 -0 -1 -1 -1
-1 -3 -3 -2 -1 -0 -2 -1 1 2 -2 -3 -4 -4 -3 -2 -0 2 4 3 2 1 1 3 4 2 0 -1 -1 -1 -1 1 2 3 3 2 1 -1 0 1 1 1 1 1 1 0 -0 -1 -1 -1 -2 -1 -1 -1 -1 -1 -1 -1 -1 -1 -1 -2 -2 -1 -1 0 0 -0 -1 -2 -2 -2 -2 -2 -1 -1 -1 -0 -0 -0 -0 -0 -0 0 0 0 0 0 0 1 1 1 0 -0 -0 -1 -1 -0 0 -0 -1 -1 -0
-1 -3 -3 -2 -1 -1 -1 1 1 1 -3 -5 -5 -4 -3 -1 2 5 6 4 1 -1 0 3 3 2 1 0 -0 -1 -1 -1 0 2 3 1 0 0 2 1 1 1 1 1 -0 -1 -1 -1 -1 -1 -1 -1 -0 -0 -1 -1 -1 -1 -2 -2 -2 -3 -2 -1 -1 -1 -0 -1 -1 -1 -2 -1 -2 -2 -1 -1 -1 -0 -0 -0 -0 -0 -0 0 0 0 0 0 1 1 1 1 0 -1 -1 -1 -0 0 0 0 0 0 0
1 -0 0 1 0 -0 -1 0 -0 -1 -4 -4 -4 -3 -1 2 4 5 5 4 1 -1 -1 1 1 1 0 0 0 -0 -0 -2 -2 -1 2 1 1 1 2 1 1 1 1 -0 -1 -1 -0 -1 -1 -0 -0 -0 -0 -0 -0 -0 -1 -1 -1 -1 -2 -2 -1 -1 -1 -1 -1 -1 -1 -1 -1 -1 -2 -2 -1 -1 -0 -1 -1 -1 -1 -1 -0 0 0 0 0 0 0 1 1 1 1 -0 -1 -1 -0 1 1 1 1 1 0
-0 -1 -1 1 1 0 1 2 1 -1 -3 -3 -2 -1 1 3 4 3 3 2 2 1 -1 -1 0 1 1 2 2 2 3 1 -0 -1 1 2 3 3 2 1 0 1 1 -0 -0 -0 0 -0 0 0 0 -0 -0 -0 -0 -1 -1 -1 -0 -1 -1 -1 -1 -1 -1 -1 -1 -1 -1 -1 -0 -1 -2 -1 -1 -1 -0 -0 -0 -0 -1 -1 -0 -0 0 -0 -0 -0 0 0 1 1 1 0 -0 -0 0 1 1 1 1 0 -0
-1 -4 -5 -3 -2 -0 3 2 0 -2 -3 -1 -0 0 0 2 2 1 0 -0 0 1 1 0 -0 -0 1 3 4 3 3 2 1 1 2 3 3 2 1 -0 -0 -0 -1 -0 1 1 0 0 0 0 0 -0 -1 -1 -0 -1 -1 -1 -0 -1 -1 -1 -1 -1 -1 -1 -1 -1 -1 -1 -0 -1 -1 -0 -0 -0 -0 0 -0 -0 -0 -0 -0 -0 -0 -0 -1 -0 -0 0 0 0 0 0 -0 0 1 1 1 1 1 0 0
-2 -6 -6 -5 -3 -0 4 2 -1 -2 -2 -1 -1 -1 -3 -2 -1 -1 -2 -2 -2 -1 1 2 1 -1 -2 0 2 2 0 1 0 0 -0 2 3 2 0 1 1 1 -0 1 1 1 0 1 1 0 -0 -0 -1 -1 -1 -2 -1 -0 -1 -1 -1 -1 -1 -1 -1 -1 -1 -1 -1 -1 -1 -0 -0 0 0 0 0 0 0 -0 -0 -0 -0 -0 -0 -1 -1 -0 -0 -0 0 0 0 0 0 0 1 1 1 1 1 1 0
-5 -6 -4 -2 -0 2 3 1 -0 -1 -0 -0 1 1 -0 -1 -1 -1 -0 -0 -1 -2 0 3 3 -0 -3 -3 -3 -2 -1 0 1 0 -1 1 3 4 4 4 4 3 3 2 1 0 1 1 1 0 -0 -0 -1 -1 -2 -2 -1 -1 -1 -1 -1 -1 -1 -1 -2 -2 -1 -1 -1 -1 -1 -0 -0 0 0 0 0 0 0 -0 -0 -0 -0 -0 -0 -0 -0 -0 -0 0 0 0 0 0 0 0 1 1 1 1 1 1 1
-7 -7 -4 -2 1 2 1 -1 -1 0 1 1 2 4 5 3 2 1 1 1 0 -1 0 3 3 1 -2 -4 -4 -4 -2 -0 1 3 5 2 0 1 4 6 6 5 4 3 2 1 2 1 1 0 -0 -1 -1 -2 -2 -1 -1 -1 -1 -1 -1 -0 -1 -1 -2 -2 -1 -1 -1 -1 -1 -1 -0 0 0 0 0 0 0 0 -0 -1 -1 -1 -0 -0 -0 -0 0 0 1 0 0 0 0 1 1 1 1 1 1 1 1
-8 -8 -6 -4 -1 -0 -2 -4 -3 -1 0 2 4 5 6 4 2 1 -0 -0 -0 -1 -2 -0 2 3 2 -1 -3 -4 -3 -1 -0 0 1 1 -2 -5 -6 -1 3 6 6 5 4 3 2 2 1 -0 -1 -1 -1 -1 -1 -1 -1 -1 -1 -1 -1 -0 0 -1 -2 -2 -1 -1 -1 -1 -1 -1 -1 -0 0 0 0 0 0 0 0 -0 -1 -1 -1 -0 -0 0 0 1 1 1 1 1 1 1 1 1 1 1 1 0 0
-5 -5 -3 -3 -2 -2 -3 -3 -2 -1 -0 2 3 4 3 2 1 -0 -1 -1 -1 -0 -1 -4 -2 2 5 3 1 -0 -1 -0 0 -2 -8 -4 -1 0 -2 -2 1 3 3 6 6 5 4 3 1 -1 -1 -1 -1 -1 -1 -1 -1 -1 -1 -1 -0 0 1 -1 -2 -2 -1 -1 -1 -1 -1 -1 -1 -0 -0 0 0 0 0 0 0 0 -0 -1 -1 -1 -0 0 0 1 1 1 1 1 1 1 1 1 1 1 0 0 0
-1 0 1 -1 -2 -4 -4 -2 0 1 0 -2 -2 -2 -1 -1 -1 -2 -1 -0 1 1 3 -1 -4 -5 0 2 3 2 1 -1 -2 -0 2 -0 2 5 7 1 -1 -2 -2 0 3 5 3 3 2 0 -1 -1 -1 -1 -1 -1 -1 -1 -1 -1 -0 0 -1 -2 -2 -1 -0 -1 -1 -1 -1 -1 -1 -1 -0 0 0 0 0 0 0 0 0 0 -0 -0 0 0 1 1 1 1 1 1 1 1 0 0 0 0 1 1 1
3 2 -1 -2 -4 -5 -6 -3 -0 2 1 -3 -5 -5 -4 -3 -3 -2 -1 -1 -1 -0 2 2 -1 -5 -7 -3 -1 -1 -1 -3 -5 -4 4 3 -1 -3 0 -1 1 4 2 -1 2 4 -1 -3 -2 -1 -3 -2 -1 -1 -1 -0 -0 -1 -1 -1 -1 -1 -2 -2 -1 -0 -0 -1 -1 -1 -1 -1 -1 -1 -0 -0 -0 0 0 0 0 1 1 1 0 0 0 -0 1 1 1 1 1 1 0 0 0 0 0 1 1 1 1
3 2 -2 -3 -4 -5 -5 -2 -0 1 1 1 -0 -1 -3 -3 -3 -3 -3 -3 -3 -3 -2 -0 0 -2 -6 -6 -4 -2 -2 -0 -0 -2 -5 1 -2 -7 -9 -1 4 5 2 3 1 -1 -1 -3 -1 0 -3 -2 -1 0 -1 -0 -1 -2 -2 -1 -1 -1 -2 -1 -0 -0 -1 -1 -1 -1 -0 -1 -1 -0 -0 -0 -0 0 0 1 1 1 1 1 1 1 1 -0 1 1 1 1 1 1 0 0 0 1 1 1 1 1 1
0 -0 -1 -2 -3 -3 -2 1 1 1 0 0 0 -1 -1 -2 -2 -2 -1 -0 -0 -1 -1 -1 -1 -2 -2 -4 -4 -2 -1 1 1 0 -2 -1 0 1 0 -3 -6 -6 -2 -0 -1 -2 4 3 4 4 1 -3 -1 1 -0 -1 -2 -2 -1 -1 -1 -1 -1 -1 -1 -1 -0 -1 -1 -1 -0 -0 -0 -0 -1 -0 -0 0 1 1 1 1 1 1 1 1 1 0 1 1 1 1 1 1 1 1 1 1 1 1 1 1 0
-1 -2 -3 -2 -2 -1 0 2 2 1 -1 -2 -2 -2 -1 -1 -0 1 2 3 2 1 -0 -1 -1 1 2 -0 -2 -3 -2 1 2 2 0 -3 -4 -2 1 -0 -9 -16 -12 -7 -2 2 5 0 -1 1 4 -1 -1 1 1 -3 -2 -1 -1 -1 -1 -1 -1 -1 -1 -1 -0 -1 -1 -1 -0 -0 -0 -0 -0 -0 -0 0 0 1 1 1 1 1 1 1 1 0 0 0 1 0 0 0 1 1 1 1 1 1 1 0 -0
-1 -2 -3 -2 -1 -0 1 1 0 -0 -1 -1 -1 -1 -1 -1 -1 -1 -0 -0 -1 -1 0 0 1 2 3 2 1 -1 -1 -2 -0 1 1 -3 -4 -4 -3 -3 -3 -3 0 2 3 2 0 -2 -4 -2 6 2 1 0 -1 -2 -1 -0 -0 -1 -1 -1 -1 -1 -0 -0 -0 -1 -1 -1 -0 -0 -0 -0 -0 -0 -0 -0 0 1 1 1 1 1 1 1 1 1 0 0 0 0 -0 0 1 1 1 1 1 1 0 0 -0
0 -0 -1 -1 -1 0 2 2 1 -0 -1 -1 -1 -1 -1 -2 -2 -3 -2 -1 -0 0 1 1 1 0 1 1 1 1 -0 -2 -3 -2 1 3 2 0 -1 -2 -1 -0 -1 1 1 -0 -4 -6 -6 -2 7 3 1 1 -2 -1 -1 -1 -1 -2 -1 -1 0 -0 -0 -0 -1 -1 -1 -0 -0 -0 -0 -0 -0 -0 -0 -0 0 0 1 1 1 1 1 1 1 0 -0 -0 0 0 -0 -0 0 1 1 0 0 1 0 0 0
1 0 -1 -1 -1 1 3 3 2 0 -1 -1 -2 -2 -3 -3 -2 -1 1 2 2 1 -0 -0 0 1 0 -1 -2 -2 -2 -1 -2 -3 -1 2 2 1 -0 -1 -1 -2 -2 -1 -1 -0 -0 -3 -4 -3 1 -1 1 1 -1 -2 -2 -1 -1 -2 -1 -0 1 0 -0 -1 -1 -1 -0 -0 -0 -1 -0 -0 0 0 -0 -0 -0 1 1 1 1 1 1 1 0 0 0 0 1 0 -0 -0 1 0 -0 -0 0 1 1 1 1
1 -1 -2 -1 -0 1 2 2 1 -0 -1 -2 -2 -2 -3 -2 -1 -0 1 0 -0 -0 0 1 2 2 0 -1 -1 -1 -1 -1 -1 -2 -2 -3 -2 -1 -0 -0 -1 -1 -1 -0 -0 -0 -0 -1 -2 -3 -4 -3 0 2 -0 -2 -1 -1 -1 -1 -1 1 1 0 -0 -1 -1 -0 -0 0 0 -0 -0 0 1 1 1 0 0 1 1 1 1 1 1 0 0 0 0 0 0 -0 -1 0 1 0 -0 -0 1 1 1 1 1
Height
1469 1470 1471 1471 1472 1473 1474 1475 1476 1477 1478 1480 1481 1482 1483 1484 1485 1486 1487 1488 1488 1489 1490 1490 1491 1491 1490 1490 1490 1490 1491 1491 1492 1492 1493 1494 1494 1495 1495 1495 1496 1496 1497 1497 1498 1499 1500 1501 1502 1504 1505 1506 1506 1507 1508 1508 1508 1508 1509 1509 1510 1510 1511 1511 1512 1512 1513 1513 1513 1513 1513 1514 1514 1515 1515 1515 1516 1516 1516 1516 1516 1517 1517 1517 1517 1518 1518 1518 1518 1518 1519 1519 1519 1519 1519 1519 1520 1520 1520 1520 1520 1520 1520
1468 1469 1470 1471 1471 1472 1473 1474 1475 1476 1477 1479 1480 1481 1482 1483 1484 1485 1486 1487 1488 1489 1490 1490 1490 1490 1490 1489 1489 1490 1491 1491 1492 1492 1493 1494 1494 1495 1495 1495 1496 1496 1497 1497 1498 1499 1500 1501 1503 1504 1505 1506 1506 1507 1508 1508 1508 1508 1509 1509 1510 1510 1511 1511 1512 1512 1513 1513 1512 1513 1514 1514 1515 1515 1515 1515 1516 1516 1516 1516 1516 1517 1517 1517 1518 1518 1518 1518 1519 1519 1519 1519 1519 1519 1519 1520 1520 1520 1520 1520 1520 1520 1520
1466 1468 1469 1469 1470 1471 1472 1473 1474 1475 1476 1478 1479 1480 1481 1482 1484 1485 1486 1486 1488 1489 1489 1489 1490 1490 1489 1489 1489 1490 1491 1491 1491 1492 1493 1494 1494 1494 1495 1495 1496 1496 1496 1497 1498 1499 1500 1501 1503 1505 1505 1506 1506 1507 1508 1508 1508 1509 1509 1509 1509 1510 1510 1511 1512 1513 1512 1512 1513 1513 1514 1514 1515 1515 1515 1516 1516 1516 1516 1516 1516 1517 1517 1517 1518 1518 1518 1518 1519 1519 1519 1519 1519 1519 1520 1520 1520 1520 1520 1520 1520 1520 1520
1465 1466 1467 1468 1469 1470 1471 1472 1473 1474 1476 1477 1478 1479 1481 1481 1483 1484 1485 1486 1487 1488 1489 1489 1489 1489 1489 1489 1489 1490 1491 1491 1491 1492 1493 1493 1494 1494 1495 1495 1496 1496 1496 1497 1498 1499 1500 1501 1503 1505 1505 1506 1507 1507 1508 1508 1508 1509 1510 1509 1509 1509 1510 1511 1512 1512 1512 1513 1513 1514 1514 1515 1515 1515 1515 1516 1516 1516 1516 1516 1517 1517 1517 1517 1518 1518 1519 1519 1519 1519 1519 1519 1519 1520 1520 1520 1520 1520 1520 1520 1521 1521 1521
1463 1465 1466 1467 1468 1469 1470 1471 1472 1474 1475 1476 1477 1478 1480 1481 1482 1483 1484 1485 1486 1487 1488 1488 1488 1488 1488 1488 1489 1489 1490 1491 1491 1492 1492 1493 1494 1494 1494 1495 1496 1496 1496 1497 1498 1499 1500 1501 1503 1505 1506 1506 1507 1507 1508 1508 1509 1509 1510 1510 1509 1509 1510 1511 1512 1512 1513 1513 1514 1514 1514 1515 1515 1515 1516 1516 1516 1516 1516 1517 1517 1517 1517 1518 1518 1518 1518 1519 1519 1519 1519 1519 1520 1520 1520 1520 1520 1520 1521 1521 1521 1521 1521
1462 1463 1464 1466 1467 1468 1469 1470 1471 1473 1475 1476 1476 1478 1479 1480 1481 1482 1483 1484 1486 1487 1487 1487 1487 1487 1488 1488 1488 1489 1490 1491 1491 1491 1492 1493 1494 1494 1494 1495 1496 1496 1496 1497 1498 1499 1501 1502 1503 1505 1506 1506 1507 1508 1508 1508 1509 1510 1510 1510 1510 1510 1510 1511 1512 1513 1513 1514 1514 1514 1515 1515 1515 1515 1516 1516 1516 1517 1517 1517 1517 1517 1518 1518 1518 1518 1518 1519 1519 1519 1519 1520 1520 1520 1520 1520 1520 1521 1521 1521 1521 1521 1521
1460 1461 1462 1464 1465 1467 1468 1470 1471 1472 1474 1475 1476 1477 1478 1479 1480 1481 1482 1484 1485 1486 1487 1487 1486 1487 1487 1487 1488 1489 1490 1490 1491 1491 1492 1493 1493 1494 1494 1495 1496 1496 1496 1497 1498 1500 1501 1502 1504 1505 1506 1507 1507 1508 1508 1508 1509 1510 1511 1511 1511 1510 1511 1512 1512 1513 1513 1514 1514 1515 1515 1515 1515 1515 1516 1516 1516 1517 1517 1517 1517 1518 1518 1518 1518 1519 1519 1519 1519 1519 1519 1520 1520 1520 1520 1521 1521 1521 1521 1521 1521 1521 1521
1459 1460 1461 1462 1464 1466 1467 1469 1471 1472 1473 1474 1476 1476 1478 1479 1480 1481 1481 1483 1484 1485 1486 1486 1486 1486 1486 1487 1488 1488 1489 1490 1490 1491 1491 1492 1493 1493 1494 1495 1496 1496 1496 1497 1499 1500 1501 1502 1504 1505 1506 1506 1507 1508 1508 1508 1509 1510 1511 1511 1511 1510 1511 1512 1512 1513 1513 1513 1514 1514 1515 1515 1515 1516 1516 1516 1516 1517 1517 1518 1518 1518 1518 1518 1518 1518 1519 1519 1519 1519 1520 1520 1520 1520 1520 1521 1521 1521 1521 1521 1521 1521 1521
1457 1458 1459 1461 1463 1465 1466 1468 1470 1471 1472 1474 1475 1476 1477 1478 1479 1480 1481 1482 1483 1484 1485 1485 1485 1486 1486 1486 1487 1488 1489 1489 1489 1490 1491 1492 1493 1493 1494 1495 1495 1496 1496 1498 1499 1500 1501 1502 1504 1505 1506 1506 1507 1508 1508 1509 1510 1510 1511 1511 1511 1511 1511 1511 1512 1513 1513 1513 1514 1514 1515 1515 1515 1516 1516 1516 1516 1517 1517 1517 1518 1518 1518 1518 1518 1518 1519 1519 1519 1519 1520 1520 1520 1520 1521 1521 1521 1521 1521 1521 1521 1521 1521
1456 1457 1458 1460 1462 1464 1466 1467 1469 1471 1471 1473 1474 1475 1476 1477 1478 1479 1480 1481 1482 1483 1484 1484 1485 1485 1486 1486 1487 1488 1488 1489 1489 1489 1491 1491 1492 1493 1494 1495 1495 1496 1497 1498 1499 1500 1501 1502 1504 1505 1506 1506 1507 1507 1508 1509 1509 1510 1511 1510 1510 1511 1511 1512 1512 1513 1513 1513 1513 1514 1514 1515 1515 1516 1516 1516 1517 1517 1517 1517 1517 1518 1518 1518 1518 1518 1519 1519 1519 1519 1520 1520 1520 1520 1521 1521 1521 1521 1521 1521 1521 1521 1521
1455 1455 1457 1459 1461 1463 1465 1466 1468 1470 1471 1472 1473 1474 1476 1476 1477 1478 1479 1481 1481 1482 1483 1483 1484 1485 1485 1486 1487 1487 1488 1489 1489 1489 1490 1491 1492 1493 1494 1494 1495 1496 1497 1498 1499 1500 1501 1502 1503 1505 1505 1506 1507 1507 1508 1508 1509 1509 1510 1510 1510 1511 1511 1512 1513 1513 1513 1513 1513 1514 1514 1515 1516 1516 1516 1516 1516 1517 1517 1517 1517 1518 1518 1518 1518 1518 1519 1519 1519 1520 1520 1520 1520 1520 1521 1521 1521 1521 1521 1521 1521 1521 1521
1453 1455 1456 1458 1460 1462 1464 1466 1467 1469 1470 1471 1472 1474 1475 1476 1477 1478 1479 1480 1481 1481 1482 1483 1483 1484 1485 1486 1486 1487 1488 1488 1489 1489 1490 1491 1492 1493 1494 1494 1495 1496 1496 1498 1499 1500 1501 1502 1503 1504 1505 1506 1506 1507 1507 1508 1508 1509 1509 1509 1509 1511 1511 1512 1512 1513 1513 1513 1513 1514 1515 1515 1516 1516 1516 1516 1516 1516 1516 1517 1517 1517 1518 1518 1518 1518 1519 1519 1519 1520 1520 1520 1520 1520 1521 1521 1521 1521 1521 1521 1521 1521 1521
1452 1454 1456 1457 1459 1461 1463 1465 1467 1468 1469 1471 1471 1473 1474 1475 1476 1477 1478 1480 1480 1481 1481 1482 1483 1484 1484 1485 1486 1486 1487 1488 1488 1489 1490 1491 1492 1493 1493 1494 1495 1496 1496 1498 1499 1500 1501 1502 1503 1504 1505 1506 1506 1506 1506 1507 1508 1509 1509 1508 1509 1511 1511 1512 1512 1513 1513 1513 1513 1514 1515 1516 1516 1516 1516 1516 1516 1516 1516 1517 1517 1517 1518 1518 1518 1518 1519 1519 1519 1520 1520 1520 1520 1520 1521 1521 1521 1521 1521 1521 1521 1521 1521
1451 1453 1455 1456 1458 1460 1462 1464 1466 1467 1469 1470 1471 1472 1473 1474 1476 1477 1478 1479 1480 1481 1481 1482 1482 1483 1484 1484 1485 1486 1487 1487 1488 1489 1490 1491 1492 1493 1493 1494 1495 1496 1496 1498 1499 1500 1501 1502 1503 1504 1505 1505 1506 1506 1506 1507 1508 1508 1508 1508 1509 1511 1511 1512 1512 1512 1512 1513 1513 1514 1515 1516 1516 1516 1516 1516 1516 1516 1516 1517 1517 1517 1518 1518 1518 1518 1519 1519 1519 1520 1520 1520 1520 1520 1521 1521 1521 1521 1521 1521 1521 1521 1521
1450 1451 1453 1455 1457 1459 1461 1463 1465 1466 1468 1469 1470 1471 1472 1474 1475 1476 1477 1479 1480 1480 1481 1482 1482 1483 1483 1484 1485 1485 1486 1487 1488 1489 1490 1491 1492 1492 1493 1494 1495 1496 1497 1498 1499 1500 1501 1501 1503 1504 1504 1504 1505 1505 1506 1507 1507 1507 1507 1509 1510 1511 1511 1512 1512 1512 1512 1513 1513 1514 1515 1516 1516 1516 1516 1515 1515 1516 1516 1517 1517 1517 1518 1518 1518 1518 1519 1519 1519 1520 1520 1520 1520 1520 1520 1521 1521 1521 1521 1521 1521 1521 1521
1448 1450 1452 1454 1456 1458 1461 1462 1464 1466 1467 1468 1470 1471 1472 1473 1475 1476 1477 1478 1479 1480 1481 1481 1482 1482 1483 1483 1484 1485 1486 1487 1488 1489 1490 1491 1492 1492 1493 1494 1495 1496 1497 1498 1499 1500 1501 1501 1502 1503 1503 1504 1504 1505 1506 1506 1506 1507 1508 1509 1510 1511 1511 1511 1512 1512 1512 1513 1513 1515 1515 1516 1516 1515 1515 1515 1515 1516 1516 1517 1517 1517 1518 1518 1518 1518 1519 1519 1519 1519 1520 1520 1520 1520 1520 1520 1520 1520 1520 1520 1520 1520 1520
1447 1449 1451 1452 1455 1457 1460 1461 1463 1465 1466 1468 1469 1470 1471 1473 1474 1476 1477 1478 1479 1480 1481 1481 1482 1482 1483 1483 1483 1484 1486 1487 1488 1489 1490 1491 1491 1492 1493 1494 1495 1496 1497 1498 1499 1500 1500 1501 1501 1502 1503 1503 1504 1505 1505 1506 1506 1507 1508 1509 1510 1511 1511 1511 1511 1512 1512 1513 1513 1514 1515 1515 1515 1515 1515 1515 1516 1516 1516 1517 1517 1517 1518 1518 1518 1518 1519 1519 1519 1519 1520 1520 1520 1520 1520 1520 1520 1520 1520 1520 1520 1520 1520
1446 1448 1450 1451 1454 1456 1458 1460 1462 1464 1466 1467 1469 1470 1471 1472 1474 1475 1476 1477 1478 1479 1480 1481 1481 1482 1482 1482 1483 1484 1486 1487 1489 1489 1490 1491 1491 1492 1493 1494 1495 1496 1497 1498 1499 1500 1500 1501 1501 1501 1502 1503 1504 1505 1505 1505 1506 1507 1508 1508 1509 1511 1511 1511 1511 1511 1512 1512 1513 1514 1515 1515 1515 1515 1515 1515 1516 1516 1516 1517 1517 1517 1517 1518 1518 1518 1519 1519 1519 1519 1519 1520 1520 1520 1520 1520 1520 1520 1520 1520 1520 1520 1520
1445 1447 1449 1451 1453 1455 1457 1459 1461 1463 1465 1466 1468 1469 1470 1471 1473 1474 1476 1477 1478 1479 1480 1480 1481 1481 1481 1482 1483 1485 1486 1488 1489 1489 1490 1491 1491 1492 1493 1494 1495 1496 1497 1498 1499 1499 1500 1501 1501 1501 1502 1503 1504 1504 1505 1505 1506 1507 1507 1508 1509 1510 1511 1511 1511 1511 1512 1512 1513 1514 1514 1515 1515 1515 1515 1515 1515 1516 1516 1516 1517 1517 1517 1518 1518 1518 1519 1519 1519 1519 1519 1519 1520 1520 1520 1520 1520 1520 1520 1520 1519 1519 1519
1445 1446 1448 1450 1452 1455 1456 1458 1460 1462 1464 1466 1467 1469 1470 1471 1473 1474 1475 1476 1477 1478 1479 1480 1480 1481 1481 1482 1484 1486 1486 1487 1488 1489 1490 1491 1491 1492 1493 1494 1495 1496 1497 1498 1499 1499 1500 1500 1501 1501 1502 1503 1504 1505 1505 1506 1506 1507 1507 1508 1509 1510 1510 1511 1511 1511 1511 1512 1513 1513 1514 1515 1515 1515 1515 1515 1515 1516 1516 1516 1517 1517 1517 1518 1518 1518 1518 1519 1519 1519 1519 1519 1519 1519 1519 1519 1519 1519 1519 1519 1519 1519 1519
1444 1446 1448 1450 1452 1454 1456 1457 1459 1461 1463 1465 1466 1468 1470 1471 1472 1474 1475 1476 1477 1478 1479 1479 1480 1481 1481 1482 1484 1485 1487 1488 1488 1489 1489 1490 1491 1491 1492 1494 1495 1496 1497 1498 1498 1499 1499 1500 1501 1501 1502 1503 1504 1505 1506 1506 1506 1506 1507 1508 1509 1509 1510 1510 1511 1511 1511 1512 1512 1513 1514 1514 1515 1515 1515 1515 1515 1516 1516 1516 1516 1517 1517 1517 1518 1518 1518 1518 1518 1519 1519 1519 1519 1519 1519 1519 1519 1519 1519 1519 1519 1519 1518
1443 1445 1447 1449 1451 1453 1455 1457 1458 1460 1462 1463 1466 1467 1469 1471 1472 1473 1474 1476 1477 1478 1478 1479 1479 1480 1481 1482 1484 1485 1486 1487 1488 1488 1489 1490 1490 1491 1492 1493 1494 1495 1496 1497 1498 1498 1499 1500 1500 1501 1503 1504 1505 1505 1506 1505 1506 1506 1507 1508 1509 1509 1510 1510 1510 1511 1511 1512 1512 1513 1513 1514 1514 1514 1515 1515 1515 1515 1516 1516 1516 1517 1517 1517 1517 1518 1518 1518 1518 1518 1519 1519 1519 1519 1519 1519 1519 1519 1518 1518 1518 1518 1518
1441 1443 1446 1447 1450 1451 1454 1456 1457 1459 1460 1462 1464 1466 1468 1469 1471 1472 1474 1475 1476 1477 1477 1478 1479 1479 1480 1482 1484 1485 1486 1487 1487 1488 1489 1489 1490 1491 1491 1493 1494 1495 1496 1497 1497 1498 1499 1499 1500 1501 1503 1504 1505 1505 1506 1505 1505 1506 1507 1508 1508 1509 1509 1510 1510 1511 1511 1512 1512 1513 1513 1513 1514 1514 1515 1515 1515 1515 1516 1516 1516 1516 1517 1517 1517 1517 1518 1518 1518 1518 1518 1518 1519 1519 1519 1518 1518 1518 1518 1518 1518 1517 1517
1439 1441 1443 1446 1448 1450 1452 1454 1456 1457 1459 1460 1462 1465 1466 1468 1470 1471 1473 1474 1475 1476 1476 1477 1478 1479 1480 1481 1483 1485 1486 1487 1487 1487 1488 1489 1490 1491 1492 1493 1493 1494 1495 1496 1497 1498 1499 1500 1500 1501 1502 1503 1504 1505 1505 1505 1505 1505 1506 1507 1508 1508 1509 1509 1510 1511 1511 1512 1512 1513 1513 1513 1514 1514 1515 1515 1515 1515 1515 1516 1516 1516 1516 1516 1517 1517 1517 1517 1518 1518 1518 1518 1518 1518 1518 1518 1518 1518 1518 1517 1517 1517 1517
1436 1438 1441 1444 1446 1448 1451 1452 1454 1456 1458 1459 1461 1463 1465 1467 1468 1470 1471 1473 1474 1475 1476 1476 1477 1478 1479 1481 1482 1484 1485 1486 1487 1487 1488 1489 1490 1491 1491 1492 1493 1494 1495 1496 1497 1498 1499 1499 1500 1501 1502 1503 1504 1505 1505 1504 1505 1505 1506 1507 1507 1508 1509 1509 1510 1511 1511 1512 1513 1513 1513 1513 1514 1514 1514 1515 1515 1515 1515 1516 1516 1516 1516 1516 1516 1517 1517 1517 1517 1517 1518 1518 1518 1518 1517 1517 1517 1517 1517 1517 1517 1516 1516
1433 1436 1439 1441 1444 1447 1449 1451 1453 1454 1456 1457 1459 1461 1463 1465 1467 1469 1471 1471 1472 1473 1474 1475 1476 1476 1478 1480 1481 1483 1484 1486 1486 1487 1488 1489 1490 1490 1491 1491 1492 1494 1495 1496 1497 1498 1498 1499 1500 1501 1502 1503 1504 1504 1504 1504 1504 1505 1505 1506 1507 1508 1509 1509 1510 1510 1511 1512 1512 1513 1513 1513 1514 1514 1514 1514 1514 1515 1515 1515 1516 1516 1516 1516 1516 1516 1516 1517 1517 1517 1517 1517 1517 1517 1517 1517 1517 1517 1516 1516 1516 1516 1516
1431 1434 1436 1439 1442 1445 1448 1450 1451 1453 1454 1456 1458 1460 1462 1464 1466 1467 1469 1470 1471 1471 1472 1473 1474 1476 1477 1479 1481 1482 1484 1485 1486 1487 1487 1488 1489 1490 1490 1491 1492 1493 1494 1496 1497 1497 1497 1498 1500 1501 1501 1502 1503 1504 1504 1504 1504 1505 1505 1506 1506 1507 1508 1509 1510 1510 1511 1511 1512 1512 1513 1513 1514 1514 1514 1514 1514 1514 1515 1515 1515 1515 1515 1516 1516 1516 1516 1516 1516 1516 1517 1516 1516 1516 1516 1516 1516 1516 1516 1516 1516 1515 1515
1429 1432 1435 1438 1440 1443 1446 1448 1449 1451 1453 1455 1457 1459 1461 1462 1464 1466 1467 1468 1469 1469 1470 1471 1473 1475 1476 1478 1480 1481 1483 1484 1486 1486 1487 1487 1488 1489 1490 1491 1492 1493 1494 1496 1496 1496 1497 1498 1499 1500 1501 1501 1502 1503 1503 1503 1504 1504 1505 1506 1506 1507 1507 1508 1509 1510 1511 1511 1511 1512 1512 1513 1513 1513 1513 1513 1513 1514 1514 1514 1515 1515 1515 1515 1515 1516 1516 1516 1516 1516 1516 1516 1516 1516 1516 1516 1516 1516 1515 1515 1515 1515 1514
1428 1430 1433 1436 1439 1441 1443 1445 1447 1449 1451 1454 1456 1457 1459 1460 1462 1463 1465 1466 1466 1467 1468 1470 1472 1473 1475 1477 1479 1481 1482 1483 1485 1486 1486 1487 1488 1489 1490 1491 1492 1493 1493 1494 1495 1496 1497 1498 1498 1499 1500 1501 1502 1502 1503 1503 1503 1504 1505 1506 1506 1506 1506 1508 1509 1510 1511 1511 1511 1511 1512 1512 1512 1513 1513 1513 1513 1513 1513 1514 1514 1514 1515 1515 1515 1515 1515 1515 1515 1516 1516 1516 1515 1515 1515 1515 1515 1515 1515 1514 1514 1514 1514
1426 1429 1431 1434 1436 1439 1441 1443 1445 1447 1450 1452 1454 1456 1457 1458 1460 1461 1462 1464 1465 1466 1467 1469 1471 1472 1474 1476 1478 1480 1481 1482 1483 1484 1486 1486 1488 1489 1490 1491 1491 1492 1493 1494 1495 1496 1496 1497 1498 1499 1500 1501 1501 1502 1502 1502 1503 1503 1504 1505 1505 1505 1506 1507 1509 1510 1510 1511 1511 1511 1511 1512 1512 1512 1512 1513 1513 1513 1513 1513 1513 1514 1514 1514 1514 1515 1515 1515 1515 1515 1515 1515 1515 1515 1515 1514 1514 1514 1514 1514 1513 1513 1513
1424 1427 1429 1432 1435 1437 1439 1441 1443 1445 1448 1450 1452 1453 1455 1457 1458 1460 1461 1462 1463 1465 1467 1468 1470 1471 1473 1475 1476 1478 1480 1481 1482 1483 1485 1486 1487 1488 1489 1490 1491 1492 1493 1494 1495 1495 1496 1497 1498 1498 1499 1500 1501 1501 1502 1502 1502 1503 1503 1504 1505 1505 1506 1507 1508 1509 1510 1510 1511 1511 1511 1511 1512 1512 1512 1512 1512 1512 1512 1512 1513 1513 1513 1513 1514 1514 1514 1514 1514 1514 1514 1514 1514 1514 1514 1514 1514 1513 1513 1513 1513 1512 1512
1421 1425 1428 1431 1433 1435 1437 1439 1441 1443 1446 1449 1451 1452 1453 1455 1456 1458 1460 1461 1462 1464 1466 1467 1469 1470 1472 1473 1475 1477 1478 1479 1481 1482 1484 1485 1487 1488 1489 1490 1491 1492 1493 1493 1494 1495 1496 1496 1497 1498 1499 1499 1500 1501 1501 1502 1502 1503 1503 1504 1504 1505 1506 1506 1507 1509 1509 1510 1510 1511 1511 1511 1511 1511 1511 1511 1511 1511 1512 1512 1512 1512 1512 1513 1513 1513 1513 1513 1513 1513 1513 1513 1513 1513 1513 1513 1513 1513 1512 1512 1512 1511 1511
1420 1423 1426 1429 1431 1433 1435 1437 1439 1441 1444 1446 1449 1451 1452 1454 1455 1457 1458 1460 1461 1463 1465 1466 1468 1469 1471 1472 1474 1475 1477 1479 1480 1482 1483 1485 1486 1487 1488 1490 1491 1491 1492 1493 1494 1494 1495 1496 1497 1498 1498 1499 1500 1500 1501 1501 1502 1503 1503 1503 1504 1504 1505 1505 1506 1507 1509 1509 1510 1510 1510 1510 1511 1511 1511 1511 1511 1511 1511 1511 1511 1512 1512 1512 1512 1512 1512 1513 1513 1513 1512 1512 1512 1512 1512 1512 1512 1512 1511 1511 1511 1511 1510
1418 1421 1424 1427 1429 1431 1433 1435 1437 1440 1442 1445 1447 1448 1450 1452 1454 1456 1457 1459 1461 1463 1465 1466 1467 1469 1470 1471 1473 1474 1476 1478 1480 1481 1482 1484 1485 1487 1488 1489 1490 1491 1492 1492 1493 1494 1495 1496 1496 1497 1498 1499 1499 1500 1500 1501 1502 1502 1503 1503 1504 1504 1504 1505 1506 1506 1507 1508 1509 1509 1510 1510 1510 1510 1510 1510 1510 1510 1511 1511 1511 1511 1511 1511 1512 1512 1512 1512 1512 1512 1512 1512 1512 1511 1511 1511 1511 1511 1511 1510 1510 1510 1509
1416 1419 1423 1426 1428 1430 1431 1433 1436 1438 1441 1443 1445 1446 1449 1451 1453 1455 1456 1458 1461 1463 1464 1466 1467 1468 1470 1471 1472 1474 1476 1478 1479 1481 1482 1483 1485 1486 1487 1489 1490 1491 1491 1492 1493 1494 1494 1495 1496 1496 1497 1498 1499 1499 1500 1500 1501 1501 1502 1503 1503 1503 1504 1505 1506 1506 1506 1507 1508 1509 1509 1509 1509 1509 1509 1509 1509 1510 1510 1510 1510 1511 1511 1511 1511 1511 1511 1511 1511 1511 1511 1511 1511 1511 1511 1511 1510 1510 1510 1509 1509 1509 1508
1414 1418 1421 1424 1426 1428 1429 1431 1434 1437 1439 1441 1443 1445 1448 1450 1451 1453 1455 1457 1460 1461 1463 1465 1466 1467 1468 1470 1471 1473 1475 1477 1479 1480 1481 1483 1484 1485 1486 1488 1489 1490 1490 1491 1492 1493 1494 1495 1495 1496 1497 1498 1498 1498 1499 1499 1500 1501 1502 1502 1502 1503 1504 1505 1505 1505 1505 1506 1507 1507 1508 1508 1508 1508 1508 1509 1509 1509 1509 1510 1510 1510 1510 1510 1510 1511 1511 1511 1511 1510 1510 1510 1510 1510 1510 1510 1509 1509 1509 1508 1508 1508 1507
1413 1417 1421 1422 1424 1426 1428 1430 1433 1435 1437 1439 1441 1444 1446 1448 1450 1451 1453 1456 1458 1460 1461 1463 1465 1466 1467 1469 1471 1472 1474 1476 1477 1479 1481 1482 1483 1485 1486 1487 1487 1488 1490 1491 1491 1492 1493 1494 1495 1496 1497 1497 1498 1498 1498 1499 1499 1500 1501 1501 1502 1503 1503 1504 1504 1505 1505 1505 1506 1506 1507 1507 1507 1507 1508 1508 1508 1509 1509 1509 1509 1509 1509 1510 1510 1510 1510 1510 1510 1510 1510 1510 1509 1509 1509 1508 1508 1508 1508 1507 1507 1507 1506
1411 1416 1419 1421 1423 1424 1426 1428 1431 1434 1436 1437 1439 1442 1445 1446 1448 1450 1452 1455 1457 1459 1460 1462 1463 1465 1466 1468 1470 1471 1473 1475 1476 1478 1479 1481 1482 1484 1485 1486 1487 1488 1489 1490 1491 1491 1493 1493 1494 1495 1496 1497 1498 1498 1498 1498 1499 1500 1500 1501 1501 1502 1503 1504 1504 1504 1504 1505 1505 1506 1506 1506 1507 1507 1507 1508 1508 1508 1508 1508 1508 1508 1509 1509 1509 1509 1509 1509 1509 1509 1509 1509 1508 1508 1508 1507 1507 1507 1507 1507 1506 1506 1506
1410 1414 1417 1420 1421 1423 1424 1426 1430 1432 1434 1436 1438 1441 1443 1446 1447 1450 1452 1454 1456 1458 1460 1461 1462 1464 1466 1467 1469 1471 1472 1474 1476 1477 1478 1479 1481 1482 1483 1485 1486 1487 1488 1489 1490 1491 1492 1493 1493 1494 1495 1496 1497 1497 1497 1498 1499 1500 1500 1501 1501 1502 1503 1503 1503 1503 1504 1504 1505 1505 1506 1506 1506 1506 1507 1507 1507 1507 1507 1507 1507 1507 1508 1508 1508 1508 1508 1508 1508 1508 1508 1508 1508 1507 1507 1507 1506 1506 1506 1506 1506 1505 1505
1409 1412 1415 1417 1419 1421 1423 1425 1428 1431 1433 1436 1438 1441 1443 1445 1447 1449 1451 1453 1455 1457 1459 1460 1461 1463 1465 1466 1468 1470 1472 1474 1475 1476 1477 1479 1480 1481 1482 1484 1485 1486 1487 1488 1489 1490 1491 1492 1493 1494 1494 1495 1496 1496 1497 1498 1498 1499 1500 1500 1500 1501 1502 1502 1502 1503 1503 1504 1504 1504 1505 1505 1505 1506 1506 1506 1506 1506 1506 1506 1506 1507 1507 1507 1507 1507 1507 1507 1507 1507 1507 1507 1507 1507 1507 1506 1506 1506 1505 1505 1505 1504 1504
1407 1411 1413 1416 1418 1420 1421 1424 1426 1429 1433 1435 1437 1440 1442 1444 1446 1448 1450 1452 1454 1456 1458 1459 1461 1462 1463 1465 1467 1469 1471 1473 1474 1476 1477 1478 1480 1481 1482 1483 1484 1485 1486 1487 1489 1489 1490 1491 1492 1493 1493 1494 1495 1496 1496 1497 1497 1498 1499 1499 1500 1501 1501 1501 1501 1502 1503 1503 1503 1503 1504 1504 1504 1505 1505 1505 1505 1506 1506 1506 1506 1506 1506 1506 1506 1506 1506 1506 1506 1506 1506 1506 1506 1506 1506 1506 1505 1505 1505 1504 1504 1503 1503
1406 1409 1412 1414 1417 1418 1420 1422 1426 1429 1432 1434 1436 1439 1441 1443 1445 1447 1449 1451 1453 1455 1457 1458 1460 1461 1462 1464 1466 1468 1470 1472 1474 1475 1476 1478 1479 1480 1481 1482 1484 1485 1486 1487 1488 1489 1490 1491 1491 1492 1492 1493 1494 1495 1496 1496 1497 1497 1498 1499 1499 1499 1500 1500 1501 1501 1502 1502 1502 1502 1503 1503 1503 1504 1504 1504 1505 1505 1505 1505 1505 1505 1505 1505 1505 1505 1505 1505 1505 1506 1506 1506 1506 1506 1505 1505 1504 1504 1504 1503 1503 1502 1502
1405 1408 1411 1414 1416 1417 1419 1422 1425 1428 1430 1432 1435 1437 1440 1442 1444 1446 1448 1450 1451 1453 1455 1457 1459 1461 1462 1463 1465 1467 1469 1471 1473 1474 1476 1477 1478 1479 1481 1482 1483 1484 1485 1486 1487 1488 1489 1490 1490 1491 1492 1493 1493 1494 1495 1496 1496 1497 1497 1498 1498 1498 1499 1499 1500 1501 1501 1501 1501 1501 1502 1502 1503 1503 1503 1504 1504 1504 1504 1504 1504 1504 1504 1504 1504 1504 1504 1504 1504 1505 1505 1505 1505 1505 1504 1504 1503 1503 1503 1502 1502 1501 1501
1405 1408 1411 1413 1415 1416 1419 1421 1425 1427 1429 1431 1434 1436 1439 1441 1443 1446 1447 1448 1450 1452 1454 1456 1458 1460 1461 1462 1464 1466 1467 1469 1471 1473 1475 1476 1477 1479 1480 1481 1482 1484 1485 1485 1486 1487 1488 1489 1490 1490 1491 1492 1493 1493 1494 1495 1496 1496 1496 1497 1497 1498 1498 1499 1499 1499 1500 1500 1501 1501 1501 1501 1502 1502 1502 1503 1503 1503 1503 1503 1503 1503 1503 1503 1503 1503 1503 1503 1503 1504 1504 1504 1504 1504 1503 1503 1502 1502 1502 1501 1501 1501 1500
1405 1408 1411 1412 1414 1416 1418 1421 1423 1426 1428 1430 1433 1436 1438 1440 1442 1444 1446 1447 1449 1451 1452 1454 1456 1458 1460 1462 1463 1465 1466 1468 1470 1471 1473 1475 1476 1478 1480 1481 1482 1483 1484 1484 1485 1486 1487 1488 1489 1490 1491 1491 1492 1493 1493 1494 1495 1495 1496 1496 1497 1497 1497 1498 1498 1499 1499 1499 1500 1500 1501 1501 1501 1501 1502 1502 1502 1502 1502 1502 1502 1502 1502 1502 1502 1502 1502 1502 1503 1503 1503 1503 1503 1503 1502 1502 1502 1501 1501 1501 1500 1500 1499
1404 1407 1410 1412 1414 1416 1418 1421 1423 1425 1427 1430 1432 1435 1437 1439 1441 1443 1444 1446 1448 1450 1451 1453 1455 1457 1460 1461 1463 1465 1466 1467 1469 1471 1472 1474 1476 1477 1479 1480 1481 1482 1483 1484 1485 1486 1486 1487 1488 1489 1490 1491 1491 1492 1492 1493 1494 1494 1495 1496 1496 1496 1497 1497 1497 1498 1498 1499 1499 1499 1500 1500 1501 1501 1501 1501 1501 1501 1501 1501 1501 1501 1501 1501 1501 1501 1501 1501 1502 1502 1502 1502 1502 1502 1501 1501 1501 1501 1500 1500 1499 1499 1498
1403 1406 1408 1411 1413 1416 1418 1420 1422 1424 1426 1429 1431 1434 1436 1438 1440 1441 1443 1445 1447 1449 1451 1452 1454 1456 1459 1461 1463 1464 1466 1466 1468 1470 1472 1473 1475 1476 1477 1479 1480 1481 1482 1483 1484 1485 1486 1487 1487 1488 1489 1490 1490 1491 1491 1492 1493 1494 1494 1495 1495 1496 1496 1496 1497 1497 1497 1498 1498 1499 1499 1500 1500 1500 1500 1500 1500 1500 1500 1500 1500 1500 1500 1500 1500 1500 1501 1501 1501 1501 1501 1501 1501 1501 1500 1500 1500 1500 1499 1499 1499 1498 1497
1401 1404 1407 1410 1412 1415 1418 1420 1421 1423 1426 1428 1430 1432 1435 1437 1439 1441 1442 1444 1446 1448 1450 1451 1453 1455 1457 1460 1461 1463 1464 1466 1467 1469 1471 1472 1474 1476 1477 1478 1480 1481 1481 1482 1483 1484 1485 1486 1487 1487 1488 1489 1489 1490 1491 1491 1492 1493 1493 1494 1494 1495 1495 1496 1496 1496 1496 1497 1497 1498 1498 1499 1499 1499 1499 1499 1499 1499 1499 1499 1499 1499 1499 1499 1499 1499 1499 1500 1500 1500 1500 1500 1500 1500 1499 1499 1499 1499 1498 1498 1498 1497 1496
1400 1403 1406 1409 1412 1415 1417 1419 1421 1422 1425 1427 1429 1431 1434 1436 1438 1440 1441 1443 1445 1447 1449 1451 1453 1454 1456 1458 1459 1461 1462 1465 1466 1468 1470 1471 1473 1475 1476 1478 1480 1481 1481 1482 1483 1483 1484 1485 1486 1486 1487 1487 1488 1489 1489 1490 1491 1491 1492 1493 1493 1494 1494 1495 1495 1495 1496 1496 1496 1497 1497 1498 1498 1498 1498 1498 1498 1499 1498 1498 1498 1498 1498 1498 1498 1498 1498 1498 1498 1499 1499 1499 1499 1499 1498 1498 1498 1498 1498 1497 1497 1496 1496
1398 1402 1406 1409 1412 1414 1416 1418 1420 1422 1424 1426 1429 1431 1433 1436 1438 1440 1441 1443 1445 1446 1448 1450 1452 1453 1455 1456 1458 1460 1461 1463 1465 1467 1469 1471 1472 1474 1476 1478 1479 1480 1481 1481 1482 1483 1484 1484 1485 1485 1486 1486 1487 1487 1488 1489 1490 1491 1491 1492 1492 1493 1493 1494 1494 1494 1495 1495 1496 1496 1496 1497 1497 1497 1497 1497 1497 1497 1497 1497 1497 1497 1497 1497 1497 1497 1497 1497 1497 1497 1497 1497 1497 1497 1497 1497 1497 1497 1497 1496 1496 1495 1495
1398 1401 1405 1408 1411 1413 1415 1416 1419 1421 1424 1426 1428 1431 1433 1435 1437 1439 1441 1442 1444 1445 1447 1449 1451 1453 1455 1456 1457 1459 1461 1462 1464 1466 1468 1469 1471 1472 1474 1476 1478 1480 1480 1481 1482 1482 1483 1483 1484 1484 1484 1485 1486 1486 1487 1488 1489 1489 1490 1491 1491 1492 1492 1493 1493 1493 1494 1494 1495 1495 1495 1496 1496 1496 1496 1496 1496 1496 1496 1496 1496 1496 1496 1496 1496 1496 1496 1496 1496 1496 1496 1496 1496 1496 1496 1496 1496 1496 1496 1495 1495 1494 1494
1398 1401 1404 1407 1410 1412 1414 1416 1418 1420 1422 1425 1428 1430 1432 1434 1436 1438 1440 1441 1443 1444 1445 1447 1449 1451 1454 1455 1456 1458 1460 1461 1463 1464 1466 1468 1470 1471 1473 1475 1477 1479 1480 1481 1481 1482 1482 1482 1482 1482 1483 1484 1484 1485 1486 1486 1487 1488 1489 1489 1490 1491 1491 1491 1492 1492 1493 1493 1494 1494 1494 1494 1495 1495 1495 1496 1496 1496 1496 1496 1496 1496 1496 1496 1496 1496 1496 1495 1496 1496 1496 1496 1496 1496 1496 1496 1495 1495 1495 1494 1494 1493 1493
1397 1400 1403 1406 1408 1411 1413 1415 1417 1419 1421 1424 1426 1428 1431 1433 1435 1436 1438 1440 1442 1443 1444 1446 1447 1449 1451 1453 1455 1457 1458 1459 1461 1463 1466 1467 1469 1471 1473 1474 1475 1476 1477 1479 1481 1481 1481 1481 1481 1481 1481 1482 1483 1484 1485 1486 1486 1487 1487 1488 1489 1490 1490 1490 1491 1491 1492 1492 1493 1493 1493 1493 1494 1494 1494 1494 1495 1495 1495 1495 1495 1495 1495 1495 1495 1494 1494 1494 1494 1495 1495 1495 1495 1495 1494 1494 1494 1494 1494 1493 1493 1492 1491
1396 1399 1402 1405 1408 1410 1412 1414 1416 1419 1421 1423 1425 1427 1429 1431 1433 1435 1437 1439 1440 1441 1443 1445 1446 1448 1449 1451 1453 1454 1456 1457 1459 1461 1465 1466 1467 1468 1471 1472 1473 1474 1475 1476 1478 1479 1479 1479 1479 1480 1480 1480 1481 1482 1483 1484 1485 1486 1486 1487 1487 1488 1488 1489 1490 1491 1491 1491 1491 1491 1492 1492 1492 1493 1493 1493 1493 1494 1494 1494 1494 1494 1494 1494 1494 1493 1493 1493 1493 1494 1494 1494 1493 1493 1493 1493 1493 1493 1493 1492 1492 1491 1491
1396 1399 1402 1405 1407 1410 1411 1414 1416 1418 1421 1423 1425 1426 1428 1431 1432 1434 1436 1437 1438 1440 1442 1444 1445 1446 1448 1449 1451 1452 1454 1456 1458 1460 1461 1463 1465 1465 1467 1469 1470 1472 1474 1475 1475 1475 1475 1476 1478 1479 1478 1479 1480 1481 1482 1483 1483 1484 1485 1486 1486 1487 1487 1488 1489 1489 1490 1490 1490 1490 1491 1491 1491 1492 1492 1492 1492 1492 1493 1493 1493 1493 1493 1493 1493 1492 1492 1492 1492 1493 1493 1492 1492 1492 1492 1492 1492 1492 1492 1491 1491 1490 1489
1396 1400 1402 1405 1407 1409 1411 1413 1416 1417 1420 1422 1424 1426 1428 1430 1431 1433 1435 1436 1438 1439 1441 1442 1444 1445 1446 1448 1449 1451 1453 1455 1457 1459 1460 1461 1463 1464 1466 1466 1468 1470 1473 1473 1473 1473 1473 1475 1477 1478 1478 1478 1479 1480 1481 1481 1482 1483 1483 1484 1485 1486 1486 1487 1487 1488 1488 1488 1489 1489 1490 1490 1490 1491 1491 1491 1491 1491 1491 1492 1492 1492 1492 1492 1492 1491 1491 1491 1491 1492 1492 1491 1491 1491 1491 1491 1491 1491 1491 1490 1489 1489 1488
1397 1400 1403 1405 1407 1409 1411 1413 1415 1417 1419 1421 1423 1425 1427 1429 1431 1432 1434 1436 1437 1438 1440 1441 1442 1444 1446 1447 1448 1450 1451 1454 1456 1457 1458 1459 1460 1462 1464 1465 1465 1466 1467 1469 1470 1471 1471 1472 1475 1477 1477 1476 1477 1479 1480 1480 1480 1481 1482 1483 1484 1484 1485 1486 1486 1486 1487 1487 1487 1488 1488 1489 1489 1489 1490 1490 1490 1490 1491 1491 1491 1491 1491 1491 1491 1491 1491 1491 1491 1491 1491 1491 1490 1490 1490 1490 1490 1490 1489 1489 1488 1487 1487
1397 1400 1403 1405 1407 1409 1411 1412 1414 1416 1418 1421 1422 1425 1426 1428 1430 1431 1433 1435 1436 1437 1439 1440 1442 1443 1445 1447 1448 1449 1451 1452 1454 1455 1456 1457 1459 1460 1462 1462 1463 1464 1466 1467 1468 1469 1469 1471 1473 1474 1476 1476 1476 1477 1478 1478 1479 1480 1481 1482 1482 1483 1484 1484 1485 1485 1486 1486 1486 1487 1487 1487 1488 1488 1488 1488 1489 1489 1489 1489 1489 1489 1490 1490 1490 1490 1490 1490 1490 1489 1489 1489 1489 1489 1489 1489 1489 1488 1488 1487 1487 1486 1485
1398 1401 1403 1405 1407 1409 1410 1412 1414 1416 1418 1420 1422 1424 1425 1427 1428 1430 1431 1433 1435 1436 1438 1439 1441 1442 1444 1445 1446 1448 1449 1450 1451 1453 1455 1457 1458 1460 1461 1462 1463 1464 1465 1466 1466 1467 1468 1470 1472 1473 1474 1475 1476 1476 1476 1477 1478 1479 1480 1480 1481 1482 1482 1483 1483 1484 1484 1485 1485 1486 1486 1486 1486 1487 1487 1487 1487 1487 1488 1488 1488 1488 1488 1488 1488 1488 1488 1488 1488 1488 1488 1488 1488 1488 1488 1488 1487 1487 1486 1486 1486 1485 1484
1398 1401 1403 1405 1406 1408 1410 1412 1414 1416 1417 1419 1421 1422 1424 1426 1427 1429 1431 1433 1434 1435 1436 1438 1440 1441 1443 1444 1445 1446 1448 1449 1450 1451 1453 1456 1457 1458 1460 1461 1462 1463 1465 1465 1466 1467 1468 1469 1470 1471 1473 1473 1474 1475 1476 1476 1477 1478 1478 1479 1480 1481 1481 1481 1482 1482 1483 1483 1484 1484 1484 1485 1485 1485 1486 1486 1486 1486 1486 1486 1487 1487 1487 1487 1487 1487 1487 1487 1487 1487 1487 1487 1487 1486 1486 1486 1486 1486 1485 1485 1484 1484 1483
1398 1401 1402 1404 1406 1408 1410 1411 1413 1415 1417 1418 1420 1422 1423 1425 1427 1428 1430 1432 1433 1434 1436 1437 1439 1441 1441 1442 1444 1445 1447 1448 1449 1451 1452 1454 1455 1456 1458 1460 1461 1462 1464 1465 1466 1466 1467 1468 1469 1470 1471 1472 1473 1474 1475 1475 1476 1476 1477 1478 1478 1479 1480 1480 1481 1481 1481 1482 1482 1483 1483 1483 1484 1484 1484 1484 1485 1485 1485 1485 1485 1486 1486 1486 1486 1486 1486 1486 1486 1486 1486 1486 1485 1485 1485 1485 1485 1484 1484 1484 1483 1482 1481